Location: Unspecified
(50.7693°N, 0.0000°E)
Time: 17:21:15
(UTC+00:00)

Transit 4A - Pass Details

Date: 04 July 2019
Orbit: 862 x 982 km, 66.8° (Epoch: 17 July)

Event Time Altitude Azimuth Distance (km) Brightness Sun altitude
Rises 05:33:29 0° 205° (SSW) 3,630 10.6 12.9°
Reaches altitude 10° 05:36:01 10° 203° (SSW) 2,700 10.0 13.3°
Maximum altitude 05:42:18 69° 122° (ESE) 1,048 8.7 14.2°
Drops below altitude 10° 05:48:42 10° 41° (NE) 2,746 11.5 15.2°
Sets 05:51:17 0° 39° (NE) 3,696 12.0 15.6°
